QPF
0.02 0.02 0.02 0.03 0.03 0.03 0.03 0.04 0.04 0.04 0.05 0.05 0.03 0.02 0.01 0.01 0.02 0.02 0.03 0.04 0.06 0.10 0.15 0.18 0.17 0.13 0.13 0.12 0.09 0.07 0.06 0.05 0.03 0.03 0.02 0.01 0.01 0.02 0.02 0.02 0.02 0.02 0.03
0.04 0.03 0.03 0.03 0.03 0.03 0.03 0.04 0.06 0.05 0.05 0.05 0.04 0.02 0.02 0.03 0.03 0.04 0.05 0.05 0.07 0.10 0.15 0.19 0.19 0.18 0.17 0.14 0.09 0.08 0.07 0.06 0.05 0.04 0.03 0.02 0.02 0.02 0.02 0.02 0.02 0.03 0.02
0.06 0.05 0.05 0.04 0.03 0.03 0.02 0.03 0.05 0.05 0.05 0.05 0.04 0.03 0.03 0.04 0.04 0.05 0.06 0.08 0.09 0.13 0.17 0.19 0.20 0.21 0.21 0.17 0.12 0.08 0.07 0.07 0.07 0.06 0.04 0.03 0.03 0.02 0.02 0.03 0.04 0.03 0.03
0.09 0.10 0.08 0.06 0.06 0.06 0.05 0.05 0.05 0.05 0.06 0.05 0.05 0.05 0.04 0.04 0.04 0.05 0.06 0.08 0.11 0.13 0.20 0.23 0.23 0.21 0.22 0.20 0.16 0.13 0.10 0.08 0.07 0.07 0.07 0.06 0.05 0.05 0.05 0.05 0.05 0.04 0.03
0.11 0.09 0.07 0.06 0.06 0.06 0.07 0.08 0.06 0.06 0.06 0.06 0.05 0.05 0.06 0.05 0.06 0.06 0.08 0.10 0.12 0.13 0.14 0.16 0.17 0.18 0.19 0.23 0.19 0.17 0.16 0.15 0.14 0.13 0.11 0.10 0.09 0.08 0.08 0.06 0.05 0.04 0.03
0.12 0.09 0.07 0.07 0.07 0.07 0.07 0.07 0.06 0.06 0.05 0.05 0.06 0.06 0.06 0.06 0.05 0.07 0.09 0.10 0.11 0.12 0.12 0.11 0.13 0.17 0.19 0.20 0.17 0.17 0.18 0.19 0.17 0.17 0.17 0.14 0.11 0.09 0.07 0.06 0.04 0.04 0.04
0.11 0.10 0.08 0.08 0.08 0.06 0.06 0.06 0.05 0.04 0.04 0.05 0.06 0.06 0.05 0.04 0.04 0.05 0.07 0.09 0.11 0.12 0.13 0.13 0.12 0.14 0.18 0.21 0.19 0.18 0.19 0.20 0.18 0.18 0.19 0.16 0.13 0.10 0.08 0.06 0.05 0.04 0.04
0.06 0.07 0.06 0.06 0.06 0.05 0.04 0.04 0.04 0.03 0.04 0.05 0.07 0.08 0.07 0.06 0.05 0.05 0.07 0.09 0.11 0.11 0.13 0.14 0.14 0.16 0.19 0.23 0.22 0.21 0.22 0.20 0.19 0.18 0.16 0.14 0.13 0.12 0.10 0.08 0.06 0.05 0.05
0.04 0.04 0.04 0.04 0.04 0.04 0.04 0.04 0.04 0.04 0.04 0.05 0.08 0.10 0.09 0.08 0.06 0.06 0.07 0.09 0.10 0.10 0.12 0.14 0.17 0.20 0.23 0.26 0.23 0.22 0.24 0.23 0.20 0.18 0.16 0.14 0.12 0.10 0.09 0.09 0.08 0.07 0.07
0.04 0.03 0.03 0.03 0.03 0.03 0.03 0.04 0.05 0.05 0.06 0.07 0.08 0.08 0.08 0.08 0.08 0.07 0.07 0.09 0.11 0.12 0.13 0.13 0.16 0.20 0.22 0.25 0.27 0.25 0.23 0.21 0.20 0.19 0.17 0.14 0.13 0.10 0.08 0.07 0.07 0.07 0.07
0.04 0.03 0.02 0.01 0.01 0.01 0.01 0.02 0.03 0.04 0.04 0.05 0.07 0.08 0.09 0.09 0.08 0.08 0.07 0.08 0.10 0.11 0.13 0.16 0.18 0.19 0.20 0.20 0.20 0.22 0.21 0.19 0.22 0.25 0.23 0.18 0.15 0.12 0.10 0.09 0.08 0.08 0.08
0.01 0.01 0.01 0.00 0.00 0.01 0.01 0.01 0.01 0.01 0.02 0.03 0.04 0.06 0.08 0.09 0.09 0.10 0.10 0.10 0.13 0.15 0.14 0.16 0.19 0.20 0.20 0.20 0.21 0.24 0.20 0.18 0.19 0.22 0.23 0.21 0.18 0.16 0.14 0.13 0.13 0.12 0.11
0.00 0.00 0.00 0.01 0.01 0.01 0.01 0.01 0.01 0.01 0.01 0.02 0.02 0.03 0.04 0.05 0.06 0.07 0.11 0.15 0.17 0.18 0.18 0.18 0.18 0.18 0.21 0.24 0.27 0.28 0.24 0.22 0.20 0.18 0.17 0.18 0.17 0.16 0.14 0.13 0.10 0.08 0.07
0.00 0.00 0.01 0.01 0.01 0.01 0.01 0.01 0.01 0.01 0.01 0.02 0.02 0.03 0.04 0.04 0.05 0.07 0.08 0.12 0.16 0.18 0.20 0.21 0.21 0.20 0.21 0.21 0.23 0.22 0.19 0.20 0.18 0.16 0.14 0.13 0.13 0.11 0.10 0.08 0.07 0.06 0.05
0.00 0.00 0.00 0.00 0.00 0.00 0.01 0.01 0.01 0.01 0.02 0.02 0.02 0.03 0.03 0.03 0.05 0.07 0.08 0.11 0.14 0.15 0.16 0.16 0.19 0.20 0.17 0.16 0.17 0.14 0.12 0.12 0.10 0.09 0.09 0.09 0.09 0.08 0.07 0.06 0.05 0.05 0.04
0.00 0.00 0.00 0.00 0.00 0.00 0.00 0.01 0.01 0.01 0.01 0.02 0.02 0.02 0.03 0.04 0.06 0.07 0.07 0.08 0.10 0.12 0.14 0.15 0.14 0.16 0.15 0.14 0.13 0.10 0.09 0.08 0.06 0.06 0.07 0.07 0.08 0.08 0.08 0.07 0.05 0.04 0.04
0.00 0.00 0.00 0.00 0.00 0.00 0.00 0.01 0.02 0.02 0.02 0.02 0.02 0.02 0.03 0.04 0.05 0.06 0.06 0.07 0.08 0.10 0.11 0.12 0.11 0.11 0.11 0.10 0.09 0.08 0.07 0.06 0.05 0.05 0.06 0.07 0.07 0.07 0.08 0.07 0.07 0.06 0.04
0.00 0.00 0.00 0.01 0.01 0.01 0.01 0.01 0.01 0.03 0.06 0.05 0.04 0.03 0.04 0.04 0.04 0.04 0.05 0.06 0.07 0.09 0.09 0.11 0.11 0.10 0.09 0.07 0.07 0.06 0.05 0.04 0.04 0.03 0.03 0.04 0.05 0.06 0.06 0.05 0.05 0.04 0.04
0.01 0.01 0.00 0.02 0.02 0.01 0.01 0.01 0.01 0.02 0.07 0.09 0.06 0.05 0.04 0.04 0.04 0.04 0.04 0.05 0.07 0.10 0.10 0.09 0.09 0.09 0.08 0.07 0.06 0.05 0.04 0.04 0.04 0.03 0.03 0.03 0.03 0.03 0.03 0.03 0.03 0.03 0.02
0.01 0.01 0.01 0.01 0.01 0.01 0.01 0.01 0.01 0.03 0.07 0.09 0.07 0.07 0.06 0.05 0.04 0.04 0.04 0.05 0.06 0.10 0.10 0.08 0.06 0.06 0.05 0.05 0.04 0.04 0.04 0.03 0.03 0.03 0.02 0.02 0.02 0.02 0.02 0.02 0.01 0.01 0.01
0.01 0.01 0.01 0.01 0.01 0.01 0.01 0.01 0.01 0.03 0.06 0.08 0.08 0.08 0.07 0.06 0.06 0.05 0.05 0.04 0.05 0.08 0.08 0.06 0.05 0.05 0.04 0.03 0.03 0.03 0.03 0.02 0.02 0.02 0.01 0.01 0.01 0.01 0.01 0.01 0.00 0.00 0.00
0.01 0.01 0.01 0.01 0.01 0.00 0.00 0.00 0.01 0.02 0.03 0.06 0.07 0.07 0.05 0.05 0.04 0.05 0.05 0.05 0.04 0.04 0.04 0.04 0.03 0.03 0.02 0.02 0.01 0.01 0.01 0.01 0.01 0.01 0.01 0.01 0.00 0.00 0.00 0.00 0.00 0.00 0.00
0.01 0.01 0.01 0.01 0.01 0.01 0.01 0.01 0.01 0.02 0.02 0.03 0.04 0.03 0.03 0.03 0.03 0.02 0.03 0.03 0.03 0.03 0.02 0.02 0.01 0.01 0.01 0.01 0.01 0.00 0.00 0.00 0.00 0.00 0.00 0.00 0.00 0.00 0.00 0.00 0.00 0.00 0.00
0.01 0.01 0.01 0.02 0.02 0.02 0.01 0.01 0.01 0.01 0.01 0.01 0.01 0.01 0.01 0.02 0.02 0.02 0.02 0.01 0.01 0.01 0.01 0.01 0.01 0.00 0.00 0.01 0.01 0.00 0.00 0.00 0.00 0.00 0.00 0.00 0.00 0.00 0.00 0.00 0.00 0.00 0.00
0.01 0.01 0.01 0.02 0.02 0.01 0.01 0.01 0.00 0.01 0.00 0.00 0.00 0.01 0.00 0.00 0.01 0.01 0.01 0.01 0.01 0.01 0.01 0.00 0.00 0.00 0.00 0.00 0.00 0.00 0.00 0.00 0.00 0.00 0.00 0.00 0.00 0.00 0.00 0.00 0.00 0.00 0.00
0.01 0.01 0.01 0.02 0.02 0.01 0.01 0.01 0.00 0.00 0.00 0.00 0.00 0.00 0.00 0.00 0.00 0.00 0.01 0.01 0.01 0.00 0.00 0.00 0.00 0.00 0.00 0.00 0.00 0.00 0.00 0.00 0.00 0.00 0.00 0.00 0.00 0.00 0.00 0.00 0.00 0.00 0.00
MSLP
1018.60 1018.65 1018.61 1018.55 1018.52 1018.54 1018.65 1018.83 1019.06 1019.29 1019.50 1019.67 1019.77 1019.83 1019.85 1019.88 1019.91 1019.98 1020.07 1020.17 1020.29 1020.41 1020.53 1020.65 1020.79 1020.94 1021.12 1021.32 1021.53 1021.73 1021.90 1022.03 1022.11 1022.15 1022.17 1022.19 1022.23 1022.31 1022.44 1022.59 1022.78 1022.97 1023.17
1018.33 1018.38 1018.36 1018.33 1018.33 1018.39 1018.54 1018.75 1019.02 1019.30 1019.55 1019.75 1019.89 1019.97 1020.01 1020.02 1020.03 1020.06 1020.11 1020.17 1020.26 1020.36 1020.49 1020.63 1020.80 1021.00 1021.22 1021.47 1021.71 1021.95 1022.15 1022.30 1022.41 1022.48 1022.54 1022.59 1022.67 1022.78 1022.93 1023.11 1023.31 1023.53 1023.75
1017.94 1018.01 1018.03 1018.05 1018.12 1018.25 1018.46 1018.73 1019.05 1019.37 1019.66 1019.89 1020.05 1020.14 1020.17 1020.17 1020.15 1020.14 1020.15 1020.18 1020.24 1020.33 1020.46 1020.63 1020.84 1021.09 1021.37 1021.66 1021.95 1022.22 1022.45 1022.63 1022.77 1022.88 1022.97 1023.06 1023.17 1023.30 1023.48 1023.68 1023.90 1024.13 1024.36
1017.49 1017.59 1017.67 1017.77 1017.92 1018.14 1018.42 1018.76 1019.12 1019.47 1019.79 1020.03 1020.19 1020.28 1020.31 1020.28 1020.24 1020.19 1020.16 1020.16 1020.21 1020.31 1020.45 1020.66 1020.91 1021.21 1021.54 1021.87 1022.20 1022.51 1022.77 1022.98 1023.15 1023.29 1023.41 1023.53 1023.67 1023.83 1024.02 1024.23 1024.46 1024.70 1024.93
1017.07 1017.21 1017.35 1017.53 1017.76 1018.05 1018.40 1018.79 1019.18 1019.55 1019.87 1020.11 1020.27 1020.34 1020.35 1020.31 1020.25 1020.18 1020.14 1020.13 1020.18 1020.28 1020.46 1020.69 1020.99 1021.33 1021.70 1022.08 1022.44 1022.78 1023.06 1023.30 1023.50 1023.67 1023.81 1023.96 1024.12 1024.30 1024.50 1024.72 1024.95 1025.19 1025.41
1016.77 1016.94 1017.13 1017.36 1017.65 1018.00 1018.38 1018.79 1019.19 1019.56 1019.86 1020.08 1020.23 1020.29 1020.29 1020.25 1020.19 1020.12 1020.08 1020.09 1020.15 1020.27 1020.47 1020.74 1021.07 1021.44 1021.84 1022.25 1022.64 1022.99 1023.30 1023.56 1023.78 1023.98 1024.15 1024.33 1024.51 1024.70 1024.91 1025.13 1025.35 1025.57 1025.79
1016.66 1016.83 1017.05 1017.30 1017.62 1017.97 1018.36 1018.76 1019.14 1019.47 1019.75 1019.95 1020.07 1020.14 1020.14 1020.11 1020.07 1020.03 1020.02 1020.04 1020.13 1020.28 1020.50 1020.79 1021.14 1021.53 1021.95 1022.36 1022.76 1023.13 1023.45 1023.74 1023.99 1024.21 1024.42 1024.62 1024.82 1025.03 1025.25 1025.46 1025.67 1025.87 1026.07
1016.78 1016.93 1017.13 1017.37 1017.66 1017.99 1018.35 1018.70 1019.03 1019.32 1019.56 1019.74 1019.86 1019.92 1019.95 1019.95 1019.94 1019.94 1019.97 1020.03 1020.14 1020.31 1020.55 1020.85 1021.20 1021.59 1022.00 1022.42 1022.81 1023.19 1023.53 1023.83 1024.11 1024.37 1024.61 1024.85 1025.08 1025.30 1025.52 1025.73 1025.92 1026.11 1026.28
1017.13 1017.24 1017.38 1017.57 1017.81 1018.07 1018.36 1018.65 1018.92 1019.15 1019.35 1019.50 1019.62 1019.70 1019.75 1019.80 1019.83 1019.88 1019.94 1020.04 1020.17 1020.36 1020.60 1020.90 1021.24 1021.61 1022.01 1022.41 1022.81 1023.18 1023.53 1023.87 1024.17 1024.47 1024.75 1025.03 1025.29 1025.54 1025.77 1025.97 1026.15 1026.32 1026.46
1017.68 1017.71 1017.78 1017.89 1018.04 1018.22 1018.42 1018.63 1018.83 1019.00 1019.16 1019.29 1019.40 1019.50 1019.58 1019.66 1019.74 1019.83 1019.92 1020.05 1020.20 1020.40 1020.64 1020.92 1021.25 1021.60 1021.98 1022.37 1022.76 1023.14 1023.50 1023.86 1024.20 1024.54 1024.87 1025.19 1025.49 1025.76 1026.00 1026.21 1026.38 1026.53 1026.66
1018.33 1018.29 1018.27 1018.28 1018.34 1018.42 1018.53 1018.65 1018.78 1018.90 1019.01 1019.11 1019.21 1019.31 1019.41 1019.51 1019.62 1019.73 1019.85 1019.99 1020.16 1020.37 1020.61 1020.89 1021.21 1021.56 1021.93 1022.31 1022.70 1023.09 1023.47 1023.86 1024.24 1024.61 1024.98 1025.34 1025.67 1025.98 1026.23 1026.45 1026.62 1026.76 1026.87
1018.99 1018.87 1018.77 1018.70 1018.66 1018.65 1018.67 1018.71 1018.76 1018.81 1018.87 1018.93 1019.00 1019.08 1019.16 1019.26 1019.37 1019.49 1019.63 1019.79 1019.99 1020.21 1020.48 1020.78 1021.12 1021.49 1021.87 1022.27 1022.67 1023.07 1023.48 1023.88 1024.29 1024.70 1025.11 1025.49 1025.86 1026.18 1026.46 1026.68 1026.86 1026.99 1027.10
1019.58 1019.39 1019.21 1019.06 1018.95 1018.86 1018.79 1018.75 1018.71 1018.69 1018.67 1018.67 1018.67 1018.70 1018.75 1018.81 1018.90 1019.02 1019.17 1019.36 1019.59 1019.87 1020.19 1020.56 1020.96 1021.38 1021.82 1022.26 1022.69 1023.12 1023.55 1023.97 1024.39 1024.82 1025.24 1025.65 1026.03 1026.37 1026.66 1026.90 1027.08 1027.21 1027.31
1020.01 1019.77 1019.54 1019.33 1019.14 1018.98 1018.83 1018.70 1018.58 1018.46 1018.34 1018.24 1018.16 1018.10 1018.07 1018.08 1018.13 1018.24 1018.41 1018.64 1018.94 1019.31 1019.74 1020.22 1020.73 1021.26 1021.78 1022.29 1022.78 1023.24 1023.69 1024.12 1024.55 1024.97 1025.39 1025.79 1026.17 1026.52 1026.82 1027.06 1027.25 1027.38 1027.48
1020.26 1019.98 1019.71 1019.45 1019.21 1018.98 1018.75 1018.53 1018.30 1018.07 1017.83 1017.60 1017.40 1017.22 1017.09 1017.03 1017.03 1017.14 1017.34 1017.65 1018.06 1018.56 1019.14 1019.78 1020.45 1021.12 1021.77 1022.38 1022.93 1023.44 1023.91 1024.34 1024.75 1025.15 1025.54 1025.92 1026.29 1026.62 1026.91 1027.16 1027.35 1027.49 1027.59
1020.34 1020.04 1019.74 1019.44 1019.14 1018.84 1018.54 1018.21 1017.87 1017.51 1017.13 1016.76 1016.41 1016.11 1015.87 1015.72 1015.68 1015.79 1016.04 1016.45 1017.00 1017.67 1018.45 1019.29 1020.15 1020.99 1021.79 1022.51 1023.15 1023.70 1024.18 1024.59 1024.97 1025.33 1025.68 1026.02 1026.35 1026.66 1026.94 1027.17 1027.36 1027.50 1027.60
1020.30 1019.98 1019.65 1019.32 1018.97 1018.61 1018.22 1017.79 1017.33 1016.83 1016.31 1015.79 1015.30 1014.87 1014.52 1014.30 1014.24 1014.36 1014.68 1015.20 1015.91 1016.77 1017.75 1018.80 1019.87 1020.90 1021.85 1022.68 1023.39 1023.98 1024.46 1024.86 1025.19 1025.49 1025.78 1026.07 1026.35 1026.63 1026.88 1027.10 1027.28 1027.41 1027.50
1020.23 1019.89 1019.53 1019.16 1018.77 1018.34 1017.87 1017.35 1016.78 1016.16 1015.51 1014.87 1014.25 1013.70 1013.27 1012.99 1012.91 1013.07 1013.46 1014.10 1014.95 1015.99 1017.17 1018.41 1019.66 1020.85 1021.93 1022.86 1023.63 1024.25 1024.72 1025.08 1025.37 1025.61 1025.84 1026.06 1026.29 1026.52 1026.74 1026.93 1027.09 1027.22 1027.30
1020.18 1019.82 1019.44 1019.04 1018.61 1018.13 1017.60 1017.00 1016.35 1015.64 1014.90 1014.15 1013.44 1012.82 1012.33 1012.02 1011.94 1012.13 1012.59 1013.32 1014.29 1015.47 1016.79 1018.17 1019.55 1020.86 1022.02 1023.02 1023.83 1024.45 1024.91 1025.23 1025.47 1025.66 1025.83 1025.99 1026.17 1026.35 1026.52 1026.69 1026.82 1026.92 1026.99
1020.22 1019.84 1019.45 1019.02 1018.56 1018.05 1017.48 1016.85 1016.15 1015.39 1014.60 1013.81 1013.06 1012.41 1011.89 1011.58 1011.51 1011.72 1012.22 1013.00 1014.04 1015.29 1016.68 1018.13 1019.57 1020.92 1022.12 1023.14 1023.95 1024.56 1024.99 1025.29 1025.49 1025.63 1025.75 1025.86 1025.99 1026.12 1026.25 1026.37 1026.47 1026.55 1026.59
1020.36 1019.98 1019.58 1019.15 1018.68 1018.16 1017.59 1016.95 1016.26 1015.50 1014.72 1013.94 1013.20 1012.56 1012.06 1011.76 1011.70 1011.92 1012.43 1013.21 1014.25 1015.50 1016.87 1018.31 1019.73 1021.05 1022.23 1023.21 1023.99 1024.57 1024.98 1025.25 1025.41 1025.52 1025.61 1025.68 1025.77 1025.86 1025.95 1026.02 1026.08 1026.11 1026.12
1020.60 1020.23 1019.84 1019.43 1018.98 1018.48 1017.94 1017.34 1016.69 1015.99 1015.26 1014.54 1013.86 1013.27 1012.82 1012.55 1012.50 1012.71 1013.19 1013.93 1014.91 1016.07 1017.35 1018.69 1020.01 1021.24 1022.33 1023.25 1023.97 1024.51 1024.88 1025.13 1025.27 1025.37 1025.43 1025.49 1025.54 1025.59 1025.64 1025.67 1025.67 1025.66 1025.62
1020.93 1020.59 1020.23 1019.84 1019.43 1018.99 1018.50 1017.97 1017.39 1016.79 1016.16 1015.54 1014.95 1014.45 1014.06 1013.83 1013.79 1013.98 1014.41 1015.06 1015.92 1016.94 1018.07 1019.25 1020.41 1021.50 1022.46 1023.27 1023.91 1024.40 1024.74 1024.97 1025.11 1025.20 1025.26 1025.31 1025.34 1025.36 1025.36 1025.34 1025.29 1025.22 1025.13
1021.32 1021.02 1020.70 1020.37 1020.01 1019.62 1019.21 1018.76 1018.29 1017.79 1017.28 1016.78 1016.31 1015.91 1015.60 1015.42 1015.40 1015.56 1015.91 1016.45 1017.17 1018.01 1018.95 1019.94 1020.91 1021.82 1022.63 1023.31 1023.87 1024.29 1024.60 1024.82 1024.97 1025.06 1025.13 1025.17 1025.19 1025.18 1025.14 1025.07 1024.97 1024.84 1024.70
1021.75 1021.51 1021.25 1020.96 1020.66 1020.33 1019.99 1019.62 1019.24 1018.86 1018.47 1018.09 1017.74 1017.44 1017.22 1017.10 1017.09 1017.23 1017.51 1017.94 1018.50 1019.17 1019.92 1020.70 1021.47 1022.20 1022.86 1023.42 1023.88 1024.25 1024.52 1024.73 1024.88 1024.98 1025.05 1025.09 1025.10 1025.07 1025.00 1024.89 1024.73 1024.55 1024.35
1022.24 1022.06 1021.84 1021.60 1021.34 1021.06 1020.77 1020.47 1020.17 1019.87 1019.58 1019.32 1019.08 1018.88 1018.74 1018.67 1018.69 1018.82 1019.04 1019.38 1019.81 1020.32 1020.89 1021.49 1022.08 1022.65 1023.16 1023.60 1023.98 1024.28 1024.53 1024.72 1024.86 1024.97 1025.04 1025.08 1025.08 1025.04 1024.94 1024.78 1024.59 1024.35 1024.09
Thickness
5719 5720 5720 5720 5719 5719 5719 5718 5718 5717 5716 5716 5716 5715 5715 5714 5714 5714 5714 5715 5715 5715 5714 5713 5711 5711 5709 5708 5707 5706 5704 5703 5702 5700 5700 5699 5698 5697 5696 5695 5695 5694 5693
5714 5714 5715 5715 5715 5715 5715 5714 5714 5713 5712 5712 5711 5711 5711 5711 5711 5711 5711 5711 5711 5712 5711 5711 5709 5708 5707 5706 5705 5703 5702 5701 5699 5698 5697 5696 5695 5694 5693 5692 5691 5690 5689
5708 5708 5709 5709 5709 5709 5709 5709 5708 5708 5708 5707 5706 5706 5706 5706 5706 5706 5707 5707 5707 5708 5708 5707 5706 5705 5704 5703 5702 5701 5699 5698 5697 5695 5694 5693 5691 5690 5689 5688 5687 5685 5684
5702 5702 5702 5703 5703 5703 5703 5703 5703 5702 5702 5701 5701 5701 5701 5701 5701 5701 5702 5702 5703 5703 5703 5703 5702 5702 5702 5700 5699 5698 5696 5695 5694 5692 5691 5689 5688 5687 5685 5684 5682 5681 5680
5696 5696 5697 5696 5697 5697 5696 5697 5696 5696 5695 5695 5695 5695 5694 5695 5695 5696 5696 5697 5697 5698 5698 5698 5698 5698 5698 5697 5696 5695 5694 5692 5690 5689 5688 5686 5685 5683 5681 5679 5677 5676 5674
5689 5689 5690 5690 5690 5690 5689 5689 5689 5688 5688 5688 5688 5688 5688 5688 5689 5690 5690 5691 5692 5692 5692 5692 5693 5693 5693 5693 5693 5691 5690 5688 5687 5685 5684 5682 5681 5679 5676 5674 5672 5670 5667
5683 5683 5684 5683 5683 5683 5682 5682 5682 5681 5681 5681 5680 5679 5680 5681 5681 5682 5682 5684 5685 5685 5685 5686 5687 5687 5688 5688 5688 5687 5685 5684 5683 5681 5679 5677 5675 5673 5671 5668 5665 5663 5660
5677 5677 5677 5676 5677 5676 5676 5675 5675 5674 5674 5673 5672 5671 5671 5672 5673 5674 5674 5675 5676 5677 5677 5678 5679 5680 5680 5681 5681 5681 5679 5679 5677 5676 5674 5672 5669 5667 5664 5661 5658 5656 5652
5667 5668 5668 5669 5669 5669 5668 5668 5668 5668 5666 5666 5666 5665 5664 5664 5663 5664 5665 5665 5666 5668 5668 5669 5670 5671 5672 5673 5674 5674 5673 5672 5671 5669 5667 5665 5662 5659 5656 5653 5650 5647 5644
5659 5659 5659 5660 5661 5661 5660 5660 5660 5661 5660 5659 5659 5660 5659 5659 5657 5656 5656 5656 5656 5657 5658 5659 5661 5662 5663 5665 5666 5666 5666 5665 5663 5661 5659 5656 5653 5650 5647 5645 5642 5638 5634
5650 5651 5651 5652 5652 5653 5652 5652 5652 5653 5653 5653 5652 5652 5652 5652 5653 5651 5649 5647 5646 5646 5647 5648 5650 5651 5653 5655 5656 5657 5657 5656 5653 5651 5649 5647 5644 5641 5638 5635 5632 5628 5624
5641 5642 5643 5643 5643 5644 5644 5644 5644 5645 5645 5646 5646 5645 5645 5645 5646 5645 5643 5640 5638 5636 5636 5638 5639 5640 5641 5643 5644 5645 5645 5644 5642 5639 5637 5635 5633 5630 5627 5624 5620 5617 5613
5632 5633 5634 5634 5634 5635 5635 5636 5636 5636 5637 5638 5638 5638 5639 5639 5639 5639 5637 5634 5630 5626 5626 5626 5627 5628 5629 5631 5631 5632 5633 5632 5629 5627 5625 5623 5621 5618 5615 5612 5608 5605 5601
5622 5623 5624 5625 5625 5626 5627 5627 5628 5628 5629 5630 5630 5630 5631 5632 5632 5633 5632 5629 5624 5619 5616 5615 5615 5616 5618 5619 5619 5619 5619 5619 5617 5615 5613 5611 5608 5606 5602 5599 5596 5593 5589
5613 5614 5615 5615 5616 5616 5617 5619 5619 5619 5620 5621 5622 5622 5623 5624 5625 5625 5625 5625 5623 5617 5611 5607 5605 5605 5606 5607 5607 5607 5607 5606 5605 5603 5601 5599 5597 5594 5591 5587 5584 5581 5577
5603 5604 5604 5605 5606 5607 5608 5609 5610 5611 5612 5613 5613 5614 5615 5616 5617 5617 5617 5618 5617 5614 5606 5599 5596 5596 5596 5596 5596 5596 5596 5595 5594 5592 5591 5589 5586 5583 5580 5576 5573 5570 5566
5593 5593 5594 5595 5596 5597 5598 5600 5601 5601 5603 5604 5605 5606 5607 5608 5609 5609 5609 5609 5608 5606 5600 5591 5588 5587 5587 5586 5585 5585 5584 5584 5583 5582 5580 5578 5576 5573 5570 5566 5563 5560 5557
5582 5583 5584 5585 5587 5587 5588 5589 5590 5591 5593 5594 5595 5597 5597 5599 5600 5600 5600 5600 5598 5597 5594 5587 5580 5578 5577 5576 5576 5575 5574 5574 5573 5572 5571 5569 5567 5564 5561 5558 5555 5551 5548
5572 5573 5574 5575 5576 5576 5577 5578 5580 5581 5582 5584 5585 5587 5588 5589 5590 5590 5591 5590 5589 5587 5585 5581 5574 5571 5569 5568 5567 5566 5565 5565 5565 5563 5561 5560 5558 5556 5553 5551 5547 5544 5541
5563 5563 5564 5565 5566 5566 5568 5569 5570 5571 5572 5574 5575 5577 5578 5579 5580 5581 5581 5581 5580 5578 5575 5572 5568 5564 5561 5559 5559 5558 5557 5556 5555 5554 5553 5552 5550 5549 5546 5544 5541 5538 5535
5553 5553 5554 5555 5557 5558 5558 5560 5561 5561 5562 5564 5565 5566 5568 5570 5571 5572 5573 5571 5571 5569 5566 5563 5560 5557 5554 5553 5552 5550 5550 5548 5547 5546 5545 5544 5543 5542 5540 5538 5535 5533 5530
5543 5544 5544 5546 5547 5548 5549 5550 5551 5552 5553 5554 5555 5556 5558 5559 5561 5561 5561 5561 5562 5561 5558 5556 5553 5551 5548 5547 5545 5545 5544 5544 5542 5539 5539 5538 5537 5536 5534 5533 5531 5529 5526
5535 5535 5536 5537 5538 5539 5541 5542 5543 5544 5544 5544 5545 5546 5548 5549 5551 5552 5551 5551 5551 5550 5550 5549 5547 5545 5543 5542 5541 5540 5538 5538 5536 5533 5533 5533 5531 5530 5530 5528 5527 5525 5523
5526 5526 5527 5529 5530 5531 5533 5535 5536 5537 5536 5536 5536 5538 5539 5540 5541 5543 5543 5542 5542 5541 5541 5541 5540 5539 5538 5537 5536 5535 5533 5531 5529 5528 5527 5528 5527 5526 5526 5525 5524 5522 5521
5519 5519 5520 5521 5523 5524 5526 5528 5530 5530 5529 5529 5530 5531 5532 5533 5534 5535 5536 5535 5534 5533 5534 5534 5534 5533 5533 5532 5531 5530 5529 5529 5527 5525 5522 5523 5523 5522 5522 5522 5521 5520 5518
5513 5514 5514 5514 5516 5517 5520 5522 5523 5524 5524 5524 5525 5526 5527 5528 5529 5530 5530 5530 5529 5527 5528 5528 5528 5528 5527 5527 5527 5526 5525 5524 5523 5523 5520 5519 5519 5518 5520 5519 5518 5517 5516